STARLINK-1368 (45540 NORAD) Tracking and Keplerian Element Data

This shows tracking and keplerian element data for the satellite.

Feedback or suggestion? Click here.




ElementValue
Catalog45540
NameSTARLINK-1368
Epoch Orbit1204
Epoch Day187.50002315
Epoch Year2020
RAAN53.5313
Inclination52.9991
Eccentricity0.0001715
Argument of Perigee81.9287
Mean Anonmoly314.2133
Mean Motion15.05552778
Decay Rate0.00044142
L11 45540U 20025K 20187.50002315 .00044142 00000-0 30320-2 0 9996
L22 45540 52.9991 53.5313 0001715 81.9287 314.2133 15.05552778 12043

Live tracking and technical data element details for STARLINK-1368 (NORAD 45540). STARLINK-1368 can be tracked NOW for your location showing map with azimuth and elevation plus other details from your city location.

Track the satellite on the map from your city or location and see movement details for azimuth, elevation, latitude, longitude, range, height, and movement on the map or in text.







IsCatalogInMostPopularTable: catalog: 45540, numindb: 14
Update: records affected: 1



GetName: 45540 STARLINK-1368

Hit Count: updated at: Mon, 06 Jul 2020 04:51:53 GMT